Flag for Switzerland Weather past 2 weeks in La-Chaux-de-Fonds, Neuchâtel, Switzerland

Now
50 °F

Passing clouds.


Feels Like: 48 °F
Forecast: 30 / 43 °F
Wind: 5 mph from East

Location: Les Eplatures


UV Index: 3 (Moderate)

Visibility: N/A


Pressure: 30.12 "Hg

Humidity: 25%

Dew point: 16 °F

Location of La-Chaux-de-FondsLocation

Historic Weather in La-Chaux-de-Fonds

°F

La-Chaux-de-Fonds temperature yesterday

Maximum temperature yesterday: 50 °F (at 2:50 PM)
Minimum temperature yesterday: 28 °F (at 5:20 AM)
Average temperature yesterday: 39 °F

Past Weeks' High & Low Weather Summary

 TemperatureHumidityPressure
High64 °F (Apr 7, 2:20 PM)100% (Apr 5, 7:20 AM)30.30 "Hg (Apr 5, 7:20 AM)
Low28 °F (Apr 15, 4:20 AM)27% (Apr 17, 11:20 AM)29.68 "Hg (Apr 3, 5:50 PM)
Average46 °F70%30.05 "Hg
* Reported Apr 2 11:20 AM — Apr 17 11:20 AM, La-Chaux-de-Fonds, Weather by CustomWeather, © 2014

Note: Actual official high and low records may vary slightly from our data, if they occured in-between our weather recording intervals... More about our weather records

Advertising

Historic Weather Conditions — Data for Previous 24 hours

 ConditionsComfort  
Time TempWeatherWind HumidityBarometerVisibility
11:20 AM
Apr 17
48 °FSunny.2 mph27%30.12 "Hg10 mi
10:50 AM46 °FPassing clouds.5 mph40%30.12 "HgN/A
10:20 AM46 °FPassing clouds.6 mph40%30.12 "HgN/A
9:20 AM43 °FSunny.2 mph42%30.12 "Hg10 mi
8:50 AM41 °FSunny.2 mph42%30.12 "Hg10 mi
8:20 AM39 °FClear.1 mph48%30.12 "Hg10 mi
7:50 AM36 °FClear.3 mph56%30.12 "Hg10 mi
7:20 AM32 °FClear.1 mph64%30.12 "Hg10 mi
6:50 AM30 °FClear.3 mph64%30.12 "Hg10 mi
6:20 AM32 °FClear.2 mph64%30.12 "Hg10 mi
5:50 AM32 °FPassing clouds.3 mph60%30.12 "HgN/A
5:20 AM36 °FPassing clouds.7 mph56%30.12 "HgN/A
4:50 AM36 °FPassing clouds.6 mph56%30.15 "HgN/A
4:20 AM36 °FChilly.2 mph56%30.15 "HgN/A
3:50 AM36 °FPassing clouds.7 mph56%30.15 "HgN/A
3:20 AM37 °FPassing clouds.8 mph52%30.15 "HgN/A
2:50 AM37 °FPassing clouds.13 mph52%30.15 "HgN/A
2:20 AM36 °FPassing clouds.9 mph56%30.18 "HgN/A
1:50 AM37 °FPassing clouds.12 mph56%30.18 "HgN/A
1:20 AM36 °FPassing clouds.10 mph60%30.18 "HgN/A
12:50 AM37 °FPassing clouds.5 mph56%30.18 "HgN/A
12:20 AM37 °FPassing clouds.8 mph56%30.18 "HgN/A
11:50 PM
Apr 16
37 °FPassing clouds.7 mph56%30.21 "HgN/A
11:20 PM37 °FPassing clouds.8 mph52%30.21 "HgN/A
10:50 PM36 °FPassing clouds.6 mph60%30.21 "HgN/A
10:20 PM37 °FPassing clouds.3 mph56%30.21 "HgN/A
9:50 PM37 °FSunny.3 mph56%30.21 "Hg10 mi
9:20 PM39 °FPassing clouds.6 mph52%30.21 "HgN/A
8:50 PM41 °FPassing clouds.8 mph49%30.21 "HgN/A
8:20 PM43 °FPassing clouds.12 mph46%30.21 "HgN/A
7:50 PM45 °FPassing clouds.13 mph39%30.21 "HgN/A
7:20 PM45 °FPassing clouds.14 mph37%30.21 "HgN/A
6:50 PM46 °FPassing clouds.14 mph34%30.21 "HgN/A
6:20 PM46 °FPassing clouds.16 mph32%30.18 "HgN/A
5:50 PM48 °FPassing clouds.16 mph32%30.18 "HgN/A
5:20 PM48 °FPassing clouds.15 mph32%30.18 "HgN/A
4:50 PM48 °FSunny.16 mph29%30.18 "Hg10 mi
4:20 PM48 °FPassing clouds.15 mph32%30.18 "HgN/A
3:50 PM50 °FPassing clouds.15 mph30%30.18 "HgN/A
3:20 PM48 °FPassing clouds.15 mph34%30.18 "HgN/A
2:50 PM50 °FPassing clouds.16 mph35%30.18 "HgN/A
2:20 PM46 °FPassing clouds.17 mph32%30.18 "HgN/A
1:50 PM46 °FPassing clouds.20 mph32%30.18 "HgN/A
1:20 PM46 °FPassing clouds.17 mph37%30.18 "HgN/A
12:50 PM45 °FPassing clouds.15 mph39%30.18 "HgN/A
12:20 PM45 °FPassing clouds.15 mph42%30.18 "HgN/A
Weather by CustomWeather, © 2014

See weather overview